{"data":{"norad_id":52846,"epoch":"2026-05-25T03:59:32.246016Z","epoch_age_seconds":63752,"freshness":"FRESH","line1":"1 52846U 22062S   26145.16634544 -.00001569  00000+0 -80471-4 0  9994","line2":"2 52846  53.2130  50.8137 0001731  87.7242 272.3948 15.08843344217338","mean_motion":15.08843344,"eccentricity":0.0001731,"inclination_deg":53.213,"raan_deg":50.8137,"arg_perigee_deg":87.7242,"mean_anomaly_deg":272.3948,"bstar":-8.0471e-5,"rev_number":21733,"period_min":95.437343162644,"perigee_km":538.53568438674,"apogee_km":540.9306510388,"semimajor_km":6917.8701677128,"source":"CELESTRAK","updated_at":"2026-05-25T13:38:17.243946Z"}}